GW0544 Weather Reports


Display with metric or nautical units.
time (UTC)temp
F
wind
direction
speed
MPH
gust
MPH
rain 1hr
in
rain 24hr
in
rain mn
in
humidity
%
barometer
mb
20260509031556 65 0 0.0 4.0 0.00 0.00 0.00 68 1016.3
20260509024603 68 312 3.0 9.0 0.00 0.00 0.00 63 1016.0
20260509023059 71 254 3.0 7.0 0.00 0.00 0.00 59 1015.7
20260509021558 73 272 1.0 5.0 0.00 0.00 0.00 54 1015.6
20260509020057 76 256 2.0 7.0 0.00 0.00 0.00 49 1015.4
20260509014554 79 261 3.0 9.0 0.00 0.00 0.00 44 1015.4
20260509013103 81 254 3.0 13.0 0.00 0.00 0.00 38 1015.4
20260509011605 82 294 2.0 14.0 0.00 0.00 0.00 25 1015.3
20260509010057 83 332 3.0 14.0 0.00 0.00 0.00 24 1015.2
20260509004600 83 313 8.0 14.0 0.00 0.00 0.00 23 1015.2
20260509003102 83 352 7.0 16.0 0.00 0.00 0.00 22 1015.1
20260509001556 83 317 6.0 17.0 0.00 0.00 0.00 21 1015.2
20260509000100 84 326 9.0 18.0 0.00 0.00 0.00 21 1015.2
20260508234556 84 321 7.0 18.0 0.00 0.00 0.00 22 1015.3
20260508233054 85 315 10.0 17.0 0.00 0.00 0.00 18 1015.2
20260508231556 85 336 8.0 18.0 0.00 0.00 0.00 19 1015.3
20260508230055 86 352 6.0 17.0 0.00 0.00 0.00 18 1015.4
20260508224609 86 351 9.0 18.0 0.00 0.00 0.00 17 1015.4
20260508223052 86 347 9.0 17.0 0.00 0.00 0.00 17 1015.6
20260508221607 86 334 10.0 20.0 0.00 0.00 0.00 20 1015.8
20260508220056 86 340 9.0 19.0 0.00 0.00 0.00 18 1016.1
20260508214554 86 343 10.0 19.0 0.00 0.00 0.00 18 1016.1
20260508213052 86 304 8.0 21.0 0.00 0.00 0.00 20 1016.3
20260508211556 86 330 9.0 19.0 0.00 0.00 0.00 19 1016.3
20260508210057 86 21 10.0 21.0 0.00 0.00 0.00 18 1016.3
20260508204554 86 322 7.0 18.0 0.00 0.00 0.00 19 1016.5
20260508203101 86 340 9.0 21.0 0.00 0.00 0.00 20 1016.4
20260508201555 86 348 10.0 16.0 0.00 0.00 0.00 20 1016.4
20260508200108 86 323 9.0 16.0 0.00 0.00 0.00 22 1016.5
20260508194552 86 351 9.0 19.0 0.00 0.00 0.00 21 1016.6
20260508193101 86 310 10.0 16.0 0.00 0.00 0.00 22 1016.7
20260508191551 86 317 9.0 17.0 0.00 0.00 0.00 21 1016.7
20260508190054 86 351 6.0 14.0 0.00 0.00 0.00 22 1016.8
20260508184554 85 342 7.0 16.0 0.00 0.00 0.00 23 1017.0
20260508183111 84 336 6.0 16.0 0.00 0.00 0.00 24 1017.1
20260508181611 84 310 6.0 15.0 0.00 0.00 0.00 26 1017.1
20260508180055 83 205 6.0 16.0 0.00 0.00 0.00 28 1017.1
20260508174556 82 309 6.0 13.0 0.00 0.00 0.00 38 1017.1
20260508173103 80 243 3.0 9.0 0.00 0.00 0.00 40 1017.1
20260508171558 80 253 6.0 11.0 0.00 0.00 0.00 41 1017.1
20260508170055 79 226 2.0 6.0 0.00 0.00 0.00 43 1017.2
20260508164559 77 248 2.0 6.0 0.00 0.00 0.00 41 1017.3
20260508163055 76 219 2.0 6.0 0.00 0.00 0.00 45 1017.5
20260508161556 75 217 0.0 5.0 0.00 0.00 0.00 46 1017.5
20260508160100 72 232 3.0 6.0 0.00 0.00 0.00 51 1017.7
20260508154555 69 0 0.0 0.0 0.00 0.00 0.00 57 1017.7
20260508153057 67 0 0.0 2.0 0.00 0.00 0.00 64 1017.8
20260508151554 63 0 0.0 1.0 0.00 0.00 0.00 77 1017.9
20260508150122 59 68 0.0 0.0 0.00 0.00 0.00 84 1017.8
20260508144604 57 0 0.0 0.0 0.00 0.00 0.00 91 1017.9
20260508143054 54 0 0.0 3.0 0.00 0.00 0.00 91 1017.8
20260508141601 51 72 0.0 3.0 0.00 0.00 0.00 92 1017.7
20260508140058 49 71 1.0 3.0 0.00 0.00 0.00 92 1017.8
20260508134551 46 71 1.0 4.0 0.00 0.00 0.00 91 1017.7
20260508133055 44 73 1.0 3.0 0.00 0.00 0.00 90 1017.6
20260508131648 43 64 2.0 3.0 0.00 0.00 0.00 89 1017.5
20260508130053 43 61 0.0 2.0 0.00 0.00 0.00 87 1017.5
20260508124559 44 61 1.0 2.0 0.00 0.00 0.00 88 1017.3
20260508123058 45 61 0.0 1.0 0.00 0.00 0.00 88 1017.3
20260508121556 45 0 1.0 3.0 0.00 0.00 0.00 89 1017.2
20260508120055 44 0 1.0 3.0 0.00 0.00 0.00 89 1017.2
20260508114603 45 0 0.0 2.0 0.00 0.00 0.00 88 1017.3
20260508113124 44 59 2.0 4.0 0.00 0.00 0.00 89 1017.3
20260508111552 44 0 0.0 1.0 0.00 0.00 0.00 86 1017.2
20260508110053 45 71 1.0 3.0 0.00 0.00 0.00 89 1017.3
20260508104559 45 71 2.0 3.0 0.00 0.00 0.00 88 1017.2
20260508103102 45 0 0.0 4.0 0.00 0.00 0.00 88 1017.4
20260508101553 45 0 0.0 2.0 0.00 0.00 0.00 87 1017.5
20260508100055 45 0 1.0 3.0 0.00 0.00 0.00 88 1017.5
20260508094554 45 73 0.0 2.0 0.00 0.00 0.00 87 1017.3
20260508093055 45 0 0.0 0.0 0.00 0.00 0.00 86 1017.2
20260508091552 45 0 0.0 2.0 0.00 0.00 0.00 86 1017.3
20260508090054 46 0 0.0 0.0 0.00 0.00 0.00 87 1017.4
20260508084554 46 0 0.0 3.0 0.00 0.00 0.00 86 1017.4
20260508083055 46 71 0.0 1.0 0.00 0.00 0.00 86 1017.7
20260508081621 46 0 0.0 1.0 0.00 0.00 0.00 84 1017.7
20260508080059 47 0 0.0 2.0 0.00 0.00 0.00 85 1017.9
20260508074600 47 72 0.0 3.0 0.00 0.00 0.00 83 1018.0
20260508073106 48 0 0.0 0.0 0.00 0.00 0.00 84 1018.1
20260508071602 49 0 0.0 0.0 0.00 0.00 0.00 83 1018.2
20260508064607 49 71 0.0 2.0 0.00 0.00 0.00 82 1018.3
20260508063054 51 0 0.0 3.0 0.00 0.00 0.00 82 1018.4
20260508061559 51 71 1.0 3.0 0.00 0.00 0.00 83 1018.5
20260508060058 51 70 1.0 3.0 0.00 0.00 0.00 82 1018.4
20260508054626 51 0 0.0 2.0 0.00 0.00 0.00 80 1018.2
20260508053056 52 0 0.0 2.0 0.00 0.00 0.00 81 1018.4
20260508051558 53 0 0.0 0.0 0.00 0.00 0.00 79 1018.3
20260508050058 54 0 0.0 2.0 0.00 0.00 0.00 79 1018.3
20260508044551 55 0 0.0 2.0 0.00 0.00 0.00 76 1018.2
20260508043058 57 232 1.0 2.0 0.00 0.00 0.00 75 1018.1
20260508041554 58 232 0.0 2.0 0.00 0.00 0.00 75 1018.0
20260508040104 59 0 0.0 0.0 0.00 0.00 0.00 76 1017.8
20260508034554 60 0 0.0 3.0 0.00 0.00 0.00 75 1017.6
20260508033054 62 223 3.0 5.0 0.00 0.00 0.00 74 1017.6